• Em Portugal
  • Lista de países
  • Para 7 dias
  • Temperatura da água
  • Mapas de satélite
  • Mapa do tempo
  • Widgets de tempo
  • user-avatar
    Iniciar Sessão

    Previsão horária em Sumgait

    Hoje, 28 Maio, Segunda-feira

    Tempo Temperatura Precipitação Vento Pressão Humidade
    00:00 +16°C° 0 mm 1 m/s 747 mmHg 49%
    01:00 +16°C° 0 mm 2 m/s 746 mmHg 49%
    02:00 +16°C° 0 mm 2 m/s 746 mmHg 50%
    03:00 +16°C° 0 mm 2 m/s 745 mmHg 51%
    04:00 +16°C° 0 mm 3 m/s 745 mmHg 51%
    05:00 +17°C° 0 mm 3 m/s 745 mmHg 50%
    06:00 +17°C° 0 mm 4 m/s 744 mmHg 50%
    07:00 +17°C° 0 mm 5 m/s 744 mmHg 47%
    08:00 +20°C° 0 mm 5 m/s 744 mmHg 44%
    09:00 +21°C° 0 mm 6 m/s 744 mmHg 41%
    10:00 +22°C° 0 mm 6 m/s 743 mmHg 39%
    11:00 +24°C° 0 mm 6 m/s 743 mmHg 37%
    12:00 +26°C° 0 mm 6 m/s 742 mmHg 35%
    13:00 +26°C° 0 mm 6 m/s 742 mmHg 36%
    14:00 +27°C° 0 mm 6 m/s 741 mmHg 36%
    15:00 +27°C° 0 mm 5 m/s 741 mmHg 36%
    16:00 +26°C° 0 mm 5 m/s 741 mmHg 39%
    17:00 +26°C° 0 mm 5 m/s 740 mmHg 42%
    18:00 +25°C° 0 mm 5 m/s 740 mmHg 46%
    19:00 +23°C° 0 mm 4 m/s 740 mmHg 49%
    20:00 +22°C° 0 mm 3 m/s 740 mmHg 52%
    21:00 +21°C° 0 mm 2 m/s 741 mmHg 56%
    22:00 +21°C° 0 mm 2 m/s 741 mmHg 57%
    23:00 +22°C° 0 mm 1 m/s 741 mmHg 58%

    Amanhã, 29 Maio, Terça-feira

    Tempo Temperatura Precipitação Vento Pressão Humidade
    00:00 +21°C° 0 mm 1 m/s 741 mmHg 60%
    01:00 +20°C° 0 mm 2 m/s 740 mmHg 60%
    02:00 +20°C° 0 mm 2 m/s 740 mmHg 60%
    03:00 +20°C° 0 mm 3 m/s 740 mmHg 61%
    04:00 +20°C° 0 mm 4 m/s 741 mmHg 61%
    05:00 +20°C° 0 mm 6 m/s 741 mmHg 62%
    06:00 +20°C° 0 mm 7 m/s 741 mmHg 62%
    07:00 +21°C° 0 mm 7 m/s 741 mmHg 60%
    08:00 +22°C° 0 mm 8 m/s 742 mmHg 57%
    09:00 +23°C° 0 mm 9 m/s 742 mmHg 55%
    10:00 +23°C° 0 mm 9 m/s 742 mmHg 53%
    11:00 +24°C° 0 mm 10 m/s 742 mmHg 52%
    12:00 +24°C° 0 mm 10 m/s 742 mmHg 50%
    13:00 +24°C° 0 mm 10 m/s 742 mmHg 51%
    14:00 +23°C° 0 mm 10 m/s 742 mmHg 52%
    15:00 +23°C° 0 mm 9 m/s 742 mmHg 53%
    16:00 +22°C° 0 mm 9 m/s 742 mmHg 57%
    17:00 +22°C° 0 mm 9 m/s 742 mmHg 60%
    18:00 +21°C° 0 mm 9 m/s 741 mmHg 63%
    19:00 +21°C° 0,1 mm 9 m/s 742 mmHg 63%
    20:00 +20°C° 0,1 mm 8 m/s 743 mmHg 63%
    21:00 +20°C° 0,1 mm 8 m/s 743 mmHg 63%
    22:00 +18°C° 0 mm 8 m/s 743 mmHg 63%
    23:00 +18°C° 0 mm 8 m/s 743 mmHg 62%

    Depois de amanhã, 30 Maio, Quarta-feira

    Tempo Temperatura Precipitação Vento Pressão Humidade
    00:00 +18°C° 0 mm 8 m/s 743 mmHg 62%
    01:00 +18°C° 0 mm 7 m/s 742 mmHg 61%
    02:00 +17°C° 0 mm 7 m/s 742 mmHg 61%
    03:00 +17°C° 0 mm 6 m/s 742 mmHg 61%
    04:00 +17°C° 0 mm 6 m/s 742 mmHg 59%
    05:00 +19°C° 0 mm 6 m/s 742 mmHg 58%
    06:00 +19°C° 0 mm 5 m/s 742 mmHg 56%
    07:00 +20°C° 0 mm 5 m/s 742 mmHg 51%
    08:00 +21°C° 0 mm 4 m/s 742 mmHg 46%
    09:00 +22°C° 0 mm 4 m/s 742 mmHg 41%
    10:00 +23°C° 0 mm 4 m/s 742 mmHg 38%
    11:00 +23°C° 0 mm 4 m/s 742 mmHg 35%
    12:00 +25°C° 0 mm 4 m/s 742 mmHg 32%
    13:00 +25°C° 0 mm 4 m/s 742 mmHg 32%
    14:00 +26°C° 0 mm 5 m/s 741 mmHg 31%
    15:00 +26°C° 0 mm 5 m/s 741 mmHg 31%
    16:00 +25°C° 0 mm 5 m/s 741 mmHg 32%
    17:00 +25°C° 0 mm 5 m/s 741 mmHg 33%
    18:00 +23°C° 0 mm 5 m/s 740 mmHg 34%
    19:00 +23°C° 0 mm 4 m/s 740 mmHg 37%
    20:00 +22°C° 0 mm 3 m/s 740 mmHg 39%
    21:00 +23°C° 0 mm 2 m/s 740 mmHg 41%
    22:00 +21°C° 0 mm 2 m/s 740 mmHg 42%
    23:00 +21°C° 0 mm 2 m/s 739 mmHg 44%

    31 Maio, Quinta-feira

    Tempo Temperatura Precipitação Vento Pressão Humidade
    00:00 +21°C° 0 mm 2 m/s 739 mmHg 45%
    01:00 +20°C° 0 mm 2 m/s 738 mmHg 44%
    02:00 +20°C° 0 mm 2 m/s 738 mmHg 44%
    03:00 +20°C° 0 mm 2 m/s 737 mmHg 44%
    04:00 +21°C° 0 mm 2 m/s 737 mmHg 43%
    05:00 +21°C° 0 mm 2 m/s 737 mmHg 42%
    06:00 +23°C° 0 mm 2 m/s 737 mmHg 41%
    07:00 +24°C° 0 mm 3 m/s 737 mmHg 39%
    08:00 +25°C° 0 mm 3 m/s 737 mmHg 37%
    09:00 +26°C° 0 mm 3 m/s 737 mmHg 35%
    10:00 +27°C° 0 mm 4 m/s 736 mmHg 34%
    11:00 +28°C° 0 mm 4 m/s 736 mmHg 33%
    12:00 +29°C° 0 mm 5 m/s 735 mmHg 32%
    13:00 +29°C° 0 mm 5 m/s 734 mmHg 33%
    14:00 +29°C° 0 mm 5 m/s 734 mmHg 33%
    15:00 +30°C° 0 mm 6 m/s 733 mmHg 34%
    16:00 +29°C° 0 mm 6 m/s 733 mmHg 37%
    17:00 +28°C° 0 mm 5 m/s 733 mmHg 41%
    18:00 +28°C° 0 mm 5 m/s 732 mmHg 44%
    19:00 +27°C° 0,1 mm 4 m/s 732 mmHg 47%
    20:00 +26°C° 0,1 mm 4 m/s 733 mmHg 50%
    21:00 +25°C° 0,1 mm 3 m/s 733 mmHg 53%
    22:00 +25°C° 0,1 mm 3 m/s 732 mmHg 53%
    23:00 +25°C° 0,1 mm 3 m/s 732 mmHg 53%

    1 Junho, Sexta-feira

    Tempo Temperatura Precipitação Vento Pressão Humidade
    00:00 +25°C° 0,1 mm 3 m/s 732 mmHg 53%
    01:00 +24°C° 0 mm 3 m/s 732 mmHg 53%
    02:00 +23°C° 0 mm 4 m/s 732 mmHg 52%
    03:00 +23°C° 0 mm 4 m/s 732 mmHg 52%
    04:00 +23°C° 0 mm 4 m/s 732 mmHg 50%
    05:00 +23°C° 0 mm 4 m/s 732 mmHg 48%
    06:00 +24°C° 0 mm 3 m/s 732 mmHg 46%
    07:00 +26°C° 0 mm 3 m/s 732 mmHg 42%
    08:00 +27°C° 0 mm 3 m/s 733 mmHg 39%
    09:00 +29°C° 0 mm 4 m/s 733 mmHg 35%
    10:00 +30°C° 0 mm 4 m/s 733 mmHg 33%
    11:00 +32°C° 0 mm 4 m/s 733 mmHg 32%
    12:00 +33°C° 0 mm 5 m/s 733 mmHg 30%
    13:00 +33°C° 0 mm 5 m/s 732 mmHg 31%
    14:00 +33°C° 0 mm 5 m/s 732 mmHg 32%
    15:00 +33°C° 0 mm 5 m/s 732 mmHg 33%
    16:00 +32°C° 0 mm 5 m/s 732 mmHg 36%
    17:00 +29°C° 0 mm 5 m/s 732 mmHg 38%
    18:00 +28°C° 0 mm 5 m/s 732 mmHg 41%
    19:00 +28°C° 0 mm 4 m/s 732 mmHg 44%
    20:00 +27°C° 0 mm 3 m/s 733 mmHg 46%
    21:00 +26°C° 0 mm 3 m/s 733 mmHg 48%
    22:00 +26°C° 0 mm 2 m/s 733 mmHg 49%
    23:00 +25°C° 0 mm 2 m/s 733 mmHg 51%

    2 Junho, Sábado

    Tempo Temperatura Precipitação Vento Pressão Humidade
    00:00 +25°C° 0 mm 2 m/s 733 mmHg 52%
    01:00 +25°C° 0 mm 1 m/s 733 mmHg 51%
    02:00 +24°C° 0 mm 1 m/s 733 mmHg 51%
    03:00 +24°C° 0 mm 1 m/s 732 mmHg 50%
    04:00 +25°C° 0 mm 1 m/s 733 mmHg 49%
    05:00 +25°C° 0 mm 2 m/s 733 mmHg 47%
    06:00 +25°C° 0 mm 2 m/s 733 mmHg 46%
    07:00 +27°C° 0 mm 2 m/s 733 mmHg 43%
    08:00 +28°C° 0 mm 2 m/s 734 mmHg 39%
    09:00 +29°C° 0 mm 2 m/s 734 mmHg 36%
    10:00 +30°C° 0 mm 3 m/s 734 mmHg 35%
    11:00 +31°C° 0 mm 3 m/s 734 mmHg 34%
    12:00 +33°C° 0 mm 4 m/s 734 mmHg 33%
    13:00 +33°C° 0 mm 4 m/s 734 mmHg 34%
    14:00 +33°C° 0 mm 5 m/s 733 mmHg 35%
    15:00 +32°C° 0 mm 5 m/s 733 mmHg 37%
    16:00 +30°C° 0 mm 6 m/s 734 mmHg 40%
    17:00 +29°C° 0 mm 7 m/s 734 mmHg 43%
    18:00 +28°C° 0 mm 8 m/s 734 mmHg 46%
    19:00 +27°C° 0 mm 8 m/s 734 mmHg 48%
    20:00 +26°C° 0 mm 8 m/s 735 mmHg 49%
    21:00 +26°C° 0 mm 7 m/s 736 mmHg 50%
    22:00 +24°C° 0 mm 7 m/s 736 mmHg 50%
    23:00 +24°C° 0 mm 7 m/s 736 mmHg 50%
    Mostrar mais